Location: CAS DS-2
(40.5268°N, 76.2220°W)
Time: 10:15:13
(UTC-05:00)

Envisat - Visible Passes

Search period start: 27 November 2020 00:00
Search period end: 07 December 2020 00:00
Orbit: 764 x 766 km, 98.1° (Epoch: 27 November)

Date Brightness Start Highest point End Pass type
(mag) Time Alt. Az. Time Alt. Az. Time Alt. Az.
27 Nov 6.3 04:34:38 10° ENE 04:36:10 11° E 04:37:44 10° ESE visible
27 Nov 2.9 06:10:40 10° N 06:15:46 79° WNW 06:20:50 10° SSW visible
27 Nov 3.6 17:24:44 10° S 17:29:45 63° W 17:34:48 10° NNW visible
28 Nov 4.1 05:34:02 10° NNE 05:38:55 46° E 05:43:47 10° S visible
28 Nov 6.0 18:29:19 10° SW 18:32:21 16° W 18:35:25 10° NW visible
29 Nov 5.6 04:58:07 10° NE 05:01:53 21° E 05:05:38 10° SE visible
29 Nov 3.3 06:36:17 10° N 06:41:06 45° WNW 06:45:54 10° SW visible
29 Nov 4.7 17:50:38 10° SSW 17:55:15 35° W 17:59:55 10° NNW visible
30 Nov 3.1 05:59:17 10° NNE 06:04:23 82° ESE 06:09:28 10° S visible
30 Nov 3.2 17:13:16 10° S 17:18:21 81° WSW 17:23:27 10° NNW visible
01 Dec 4.6 05:22:48 10° NNE 05:27:29 36° E 05:32:08 10° SSE visible
01 Dec 5.7 18:17:09 10° SW 18:20:52 20° W 18:24:35 10° NW visible
02 Dec 5.9 04:47:16 10° NE 04:50:23 16° E 04:53:30 10° SE visible
02 Dec 3.1 06:24:47 10° N 06:29:45 57° WNW 06:34:43 10° SSW visible
02 Dec 4.3 17:38:59 10° S 17:43:49 45° W 17:48:41 10° NNW visible
03 Dec 3.5 05:47:56 10° NNE 05:53:00 65° E 05:58:01 10° S visible
03 Dec 3.0 17:01:54 10° SSE 17:06:58 80° ENE 17:12:04 10° N visible
03 Dec 6.3 18:45:11 10° WSW 18:46:34 11° W 18:47:58 10° WNW visible
04 Dec 5.1 05:11:40 10° NE 05:16:02 28° E 05:20:22 10° SSE visible
04 Dec 5.3 18:05:12 10° SSW 18:09:23 26° W 18:13:35 10° NW visible
05 Dec 6.2 04:36:45 10° ENE 04:38:52 12° E 04:40:59 10° ESE visible
05 Dec 2.9 06:13:19 10° N 06:18:24 73° WNW 06:23:27 10° SSW visible
05 Dec 3.7 17:27:24 10° S 17:32:23 58° W 17:37:24 10° NNW visible
06 Dec 3.9 05:36:38 10° NNE 05:41:34 50° E 05:46:29 10° S visible
06 Dec 6.1 18:32:18 10° WSW 18:35:03 15° W 18:37:47 10° WNW visible
